Photometre #79[Standard_N] Nicosia AOT

File : 20200926_79.hum

26/09/2020,04:22:01,TEMP=20.2,BA=5.60,STAT.A=Abs.,ExtBa=15.24
26/09/2020,04:25:09,TEMP=20.5,BA=5.60,STAT.A=Abs.,ExtBa=15.18
26/09/2020,04:28:50,TEMP=20.6,BA=5.60,STAT.A=Abs.,ExtBa=15.18
26/09/2020,04:33:13,TEMP=20.8,BA=5.48,STAT.A=Abs.,ExtBa=15.20
26/09/2020,04:38:28,TEMP=21.2,BA=5.48,STAT.A=Abs.,ExtBa=15.20
26/09/2020,04:44:57,TEMP=21.8,BA=5.56,STAT.A=Abs.,ExtBa=15.25
26/09/2020,04:53:08,TEMP=22.8,BA=5.60,STAT.B=Abs.,ExtBa=15.27
26/09/2020,04:59:52,TEMP=23.8,BA=5.60,STAT.A=Abs.,ExtBa=14.46
26/09/2020,05:01:43,TEMP=24.1,BA=5.48,STAT.A=Abs.,ExtBa=14.46
26/09/2020,05:06:19,TEMP=24.1,BA=5.48,STAT.A=Abs.,ExtBa=14.78
26/09/2020,05:11:54,TEMP=24.6,BA=5.60,STAT.A=Abs.,ExtBa=15.05
26/09/2020,05:18:17,TEMP=24.7,BA=5.60,STAT.b=Abs.
26/09/2020,05:25:43,TEMP=25.7,BA=5.60,STAT.A=Abs.,ExtBa=15.28
26/09/2020,05:34:28,TEMP=26.1,BA=5.60,STAT.A=Abs.,ExtBa=15.29
26/09/2020,05:44:52,TEMP=26.5,BA=5.60,STAT.A=Abs.,ExtBa=15.28
26/09/2020,05:57:35,TEMP=27.2,BA=5.60,STAT.A=Abs.,ExtBa=15.27
26/09/2020,06:13:30,TEMP=27.9,BA=5.60,STAT.B=Abs.,ExtBa=15.26
26/09/2020,06:23:06,TEMP=28.1,BA=5.52,STAT.D=Abs.,ExtBa=14.81
26/09/2020,06:38:08,TEMP=29.5,BA=5.60,STAT.F,ExtBa=15.27
26/09/2020,06:53:16,TEMP=29.6,BA=5.56,STAT.b=Abs.
26/09/2020,07:08:06,TEMP=30.3,BA=5.56,STAT.D=Abs.,ExtBa=15.25
26/09/2020,07:23:06,TEMP=31.6,BA=5.56,STAT.D=Abs.,ExtBa=15.23
26/09/2020,07:38:08,TEMP=32.3,BA=5.52,STAT.F,ExtBa=15.22
26/09/2020,07:52:59,TEMP=32.2,BA=5.48,STAT.b=Abs.
26/09/2020,08:08:06,TEMP=33.0,BA=5.48,STAT.D=Abs.,ExtBa=15.23
26/09/2020,08:23:07,TEMP=33.5,BA=5.48,STAT.D=Abs.,ExtBa=15.21
26/09/2020,08:38:08,TEMP=34.1,BA=5.48,STAT.F,ExtBa=15.20
26/09/2020,08:53:07,TEMP=33.9,BA=5.44,STAT.D=Abs.,ExtBa=14.89
26/09/2020,09:08:07,TEMP=34.3,BA=5.44,STAT.D=Abs.,ExtBa=15.20
26/09/2020,09:23:07,TEMP=34.8,BA=5.44,STAT.D=Abs.,ExtBa=15.19
26/09/2020,09:38:08,TEMP=35.6,BA=5.44,STAT.F,ExtBa=15.19
26/09/2020,09:53:07,TEMP=35.5,BA=5.44,STAT.D=Abs.,ExtBa=14.96
26/09/2020,10:08:07,TEMP=34.9,BA=5.44,STAT.D=Abs.,ExtBa=15.18
26/09/2020,10:23:07,TEMP=35.8,BA=5.44,STAT.D=Abs.,ExtBa=15.17
26/09/2020,10:38:08,TEMP=35.9,BA=5.44,STAT.F,ExtBa=15.14
26/09/2020,10:53:07,TEMP=35.3,BA=5.40,STAT.D=Abs.,ExtBa=14.87
26/09/2020,11:08:07,TEMP=34.8,BA=5.40,STAT.D=Abs.,ExtBa=15.14
26/09/2020,11:23:07,TEMP=34.8,BA=5.40,STAT.D=Abs.,ExtBa=15.14
26/09/2020,11:38:08,TEMP=33.7,BA=5.40,STAT.F,ExtBa=15.14
26/09/2020,11:53:06,TEMP=33.9,BA=5.40,STAT.D=Abs.,ExtBa=14.86
26/09/2020,12:08:06,TEMP=33.9,BA=5.44,STAT.D=Abs.,ExtBa=15.15
26/09/2020,12:23:06,TEMP=33.9,BA=5.48,STAT.D=Abs.,ExtBa=15.15
26/09/2020,12:38:08,TEMP=33.2,BA=5.44,STAT.F,ExtBa=15.14
26/09/2020,12:53:06,TEMP=32.7,BA=5.44,STAT.D=Abs.,ExtBa=14.90
26/09/2020,13:02:44,TEMP=32.7,BA=5.48,STAT.B=Abs.,ExtBa=15.16
26/09/2020,13:18:39,TEMP=32.1,BA=5.44,STAT.A=Abs.,ExtBa=15.12
26/09/2020,13:31:22,TEMP=31.7,BA=5.48,STAT.A=Abs.,ExtBa=15.17
26/09/2020,13:41:46,TEMP=31.5,BA=5.52,STAT.A=Abs.,ExtBa=15.16
26/09/2020,13:50:30,TEMP=31.6,BA=5.52,STAT.A=Abs.,ExtBa=15.16
26/09/2020,13:57:55,TEMP=31.4,BA=5.52,STAT.C=Abs.,ExtBa=15.16
26/09/2020,14:08:20,TEMP=31.3,BA=5.36,STAT.A=Abs.,ExtBa=14.36
26/09/2020,14:10:02,TEMP=31.3,BA=5.36,STAT.A=Abs.,ExtBa=14.42
26/09/2020,14:14:50,TEMP=30.8,BA=5.36,STAT.A=Abs.,ExtBa=14.84
26/09/2020,14:19:12,TEMP=30.6,BA=5.36,STAT.A=Abs.,ExtBa=15.02
26/09/2020,14:23:06,TEMP=30.5,BA=5.40,STAT.B=Abs.,ExtBa=15.10
26/09/2020,14:31:17,TEMP=30.3,BA=5.48,STAT.A=Abs.,ExtBa=14.58
26/09/2020,14:37:45,TEMP=30.0,BA=5.48,STAT.A=Abs.,ExtBa=15.02
26/09/2020,14:43:00,TEMP=29.8,BA=5.52,STAT.A=Abs.,ExtBa=15.10
26/09/2020,14:47:23,TEMP=29.6,BA=5.52,STAT.A=Abs.,ExtBa=15.12
26/09/2020,14:51:03,TEMP=29.5,BA=5.52,STAT.A=Abs.,ExtBa=15.11
26/09/2020,14:54:13,TEMP=29.3,BA=5.52,STAT.A=Abs.,ExtBa=15.11